Lakewood, Ohio, United States (44107)
Lat: 41.48N, Lon: 81.8W
Wx Zone: OHZ011
Local Info
Past Weather Observations for Today

NOTE: This archive is for the closest National Weather Service station to Lakewood. Information may differ from the station used for current weather conditions.

Click here for Long-term Archive

Time Weather Temperature Dewpoint Humidity Pressure Winds Precip Visibility
14:12
Overcast
Light Snow
12°F / -11°C °F / -18°C 57% 30.45 in
(1031 mb)
NW 15 mph
(NW 24 kph)
0.00 in
(0.00 mm)
5SM
14:03
Overcast
Light Snow
10°F / -12°C 1°F / -17°C 67% 30.45 in
(1031 mb)
NW 17.3 mph
(NW 28 kph)
0.00 in
(0.00 mm)
3/4SM
13:58
Overcast
Light Snow
10°F / -12°C °F / -18°C 61% 30.45 in
(1031 mb)
NW 17.3 mph
(NW 28 kph)
0.00 in
(0.00 mm)
1 3/4SM
13:51
Overcast
Light Snow
12°F / -11°C °F / -18°C 57% 30.45 in
(1031 mb)
NW 19.6 mph
(NW 32 kph)
0.00 in
(0.00 mm)
4SM
13:29
Overcast
Light Snow
10°F / -12°C 1°F / -17°C 67% 30.45 in
(1031 mb)
NW 13.8 mph
(NW 22 kph)
0.00 in
(0.00 mm)
4SM
13:22
Overcast
Light Snow
10°F / -12°C 1°F / -17°C 67% 30.45 in
(1031 mb)
NW 15 mph
(NW 24 kph)
0.00 in
(0.00 mm)
1 1/4SM
13:16
Overcast
Light Snow
10°F / -12°C 1°F / -17°C 67% 30.45 in
(1031 mb)
NW 16.1 mph
(NW 26 kph)
0.00 in
(0.00 mm)
2 1/2SM
12:51
Overcast
Light Snow
10°F / -12°C °F / -18°C 61% 30.45 in
(1031 mb)
NW 17.3 mph
(NW 28 kph)
0.00 in
(0.00 mm)
5SM
11:51
Overcast
Light Snow
10°F / -12°C °F / -18°C 61% 30.45 in
(1031 mb)
NW 17.3 mph
(NW 28 kph)
0.00 in
(0.00 mm)
5SM
11:10
Overcast
Light Snow
9°F / -13°C -2°F / -19°C 61% 30.45 in
(1031 mb)
WNW 15 mph
(WNW 24 kph)
0.00 in
(0.00 mm)
4SM
10:51
Overcast
10°F / -12°C -2°F / -19°C 56% 30.45 in
(1031 mb)
NW 15 mph
(NW 24 kph)
- 7SM
09:51
Mostly Cloudy
9°F / -13°C -2°F / -19°C 61% 30.45 in
(1031 mb)
NW 17.3 mph
(NW 28 kph)
- 10SM
08:51
Mostly Cloudy
9°F / -13°C -6°F / -21°C 51% 30.42 in
(1030 mb)
NW 13.8 mph
(NW 22 kph)
- 10SM
07:51
Overcast
9°F / -13°C -4°F / -20°C 56% 30.39 in
(1029 mb)
NW 12.7 mph
(NW 20 kph)
- 9SM
06:51
Overcast
9°F / -13°C -4°F / -20°C 56% 30.36 in
(1028 mb)
NW 17.3 mph
(NW 28 kph)
0.00 in
(0.00 mm)
10SM
05:51
Overcast
Light Snow
9°F / -13°C -4°F / -20°C 56% 30.33 in
(1027 mb)
NW 17.3 mph
(NW 28 kph)
0.00 in
(0.00 mm)
7SM
04:51
Overcast
Light Snow
9°F / -13°C -4°F / -20°C 56% 30.3 in
(1026 mb)
NW 20.7 mph
(NW 33 kph)
0.00 in
(0.00 mm)
5SM
04:26
Overcast
Light Snow
9°F / -13°C -4°F / -20°C 56% 30.3 in
(1026 mb)
NW 18.4 mph
(NW 30 kph)
0.00 in
(0.00 mm)
6SM
04:10
Overcast
Light Snow
9°F / -13°C -2°F / -19°C 61% 30.3 in
(1026 mb)
NW 17.3 mph
(NW 28 kph)
0.00 in
(0.00 mm)
4SM
03:51
Overcast
Light Snow
9°F / -13°C °F / -18°C 66% 30.27 in
(1025 mb)
NW 18.4 mph
(NW 30 kph)
0.00 in
(0.00 mm)
1 1/2SM
03:27
Overcast
Light Snow
9°F / -13°C °F / -18°C 66% 30.27 in
(1025 mb)
NW 19.6 mph
(NW 32 kph)
0.00 in
(0.00 mm)
1SM
03:12
Overcast
Hazy
9°F / -13°C -2°F / -19°C 61% 30.27 in
(1025 mb)
NW 20.7 mph
(NW 33 kph)
0.00 in
(0.00 mm)
2 1/2SM
02:58
Overcast
Light Snow
9°F / -13°C 1°F / -17°C 72% 30.27 in
(1025 mb)
NW 19.6 mph
(NW 32 kph)
0.00 in
(0.00 mm)
1 1/2SM
02:51
Overcast
Light Snow
9°F / -13°C 1°F / -17°C 72% 30.27 in
(1025 mb)
NW 18.4 mph
(NW 30 kph)
0.00 in
(0.00 mm)
1 1/4SM
02:42
Overcast
Light Snow
9°F / -13°C 1°F / -17°C 72% 30.27 in
(1025 mb)
NW 17.3 mph
(NW 28 kph)
0.00 in
(0.00 mm)
3/4SM
02:36
Overcast
Light Snow
10°F / -12°C °F / -18°C 61% 30.27 in
(1025 mb)
NW 23 mph
(NW 37 kph)
0.00 in
(0.00 mm)
1 1/2SM
01:51
Overcast
10°F / -12°C -2°F / -19°C 56% 30.24 in
(1024 mb)
NW 21.9 mph
(NW 35 kph)
0.00 in
(0.00 mm)
8SM
00:51
Overcast
Light Snow
12°F / -11°C 1°F / -17°C 62% 30.21 in
(1023 mb)
NW 23 mph
(NW 37 kph)
0.00 in
(0.00 mm)
5SM
Time Weather Temperature Dewpoint Humidity Pressure Winds Precip Visibility


Weather for websites

WeatherForYou.com, LLC is not responsible for any damages or problems caused by this service. Current weather conditions are obtained from the closest station including government and personal stations which may have varying degrees of accuracy. Weather forecasts are derived from the NOAA NDFD. Like all things, this site belongs to Jesus Christ... He just trusts us to maintain it. If you have any questions or comments email webmaster@weatherforyou.com

Copyright © 2016, WeatherForYou.com LLC. All rights reserved.